| time (UTC) | temp C | wind direction | speed KPH | gust KPH | rain 1hr cm | rain 24hr cm | rain mn cm | humidity % | barometer mb |
| 20260507140342 | 10 | 8 | 0.0 | 0.0 | 0.00 | 0.00 | 0.03 | 97 | |
| 20260507135144 | 10 | 8 | 0.0 | 0.0 | 0.00 | 0.00 | 0.03 | 97 | |
| 20260507134519 | 10 | 8 | 0.0 | 0.0 | 0.00 | 0.00 | 0.03 | 97 | |
| 20260507133319 | 10 | 8 | 0.0 | 0.0 | 0.00 | 0.00 | 0.03 | 98 | |
| 20260507132743 | 10 | 8 | 1.6 | 1.6 | 0.00 | 0.00 | 0.03 | 99 | |
| 20260507132122 | 10 | 8 | 0.0 | 0.0 | 0.00 | 0.00 | 0.03 | 99 | |
| 20260507130911 | 9 | 8 | 1.6 | 3.2 | 0.00 | 0.00 | 0.03 | 99 | |
| 20260507130312 | 10 | 15 | 0.0 | 0.0 | 0.00 | 0.00 | 0.03 | 99 | |
| 20260507124550 | 9 | 31 | 0.0 | 0.0 | 0.00 | 0.00 | 0.03 | 99 | |
| 20260507123943 | 8 | 31 | 0.0 | 1.6 | 0.00 | 0.00 | 0.03 | 99 | |
| 20260507123343 | 8 | 31 | 0.0 | 0.0 | 0.00 | 0.00 | 0.03 | 99 | |
| 20260507122748 | 8 | 32 | 0.0 | 1.6 | 0.00 | 0.00 | 0.03 | 99 | |
| 20260507122127 | 8 | 32 | 0.0 | 0.0 | 0.00 | 0.00 | 0.03 | 99 | |
| 20260507120340 | 8 | 96 | 0.0 | 0.0 | 0.00 | 0.00 | 0.03 | 99 | |
| 20260507115712 | 8 | 96 | 0.0 | 3.2 | 0.00 | 0.00 | 0.03 | 99 | |
| 20260507115147 | 8 | 69 | 0.0 | 1.6 | 0.00 | 0.00 | 0.03 | 99 | |
| 20260507114527 | 9 | 31 | 0.0 | 0.0 | 0.00 | 0.00 | 0.03 | 99 | |
| 20260507113916 | 8 | 31 | 0.0 | 1.6 | 0.00 | 0.00 | 0.03 | 99 | |
| 20260507113326 | 8 | 31 | 0.0 | 0.0 | 0.00 | 0.00 | 0.03 | 99 | |
| 20260507112752 | 8 | 31 | 0.0 | 0.0 | 0.00 | 0.00 | 0.03 | 99 | |
| 20260507111513 | 8 | 31 | 0.0 | 0.0 | 0.00 | 0.00 | 0.03 | 99 | |
| 20260507110940 | 9 | 32 | 0.0 | 0.0 | 0.00 | 0.00 | 0.03 | 99 | |
| 20260507110320 | 9 | 31 | 0.0 | 0.0 | 0.00 | 0.00 | 0.03 | 99 | |
| 20260507105718 | 9 | 31 | 0.0 | 0.0 | 0.00 | 0.00 | 0.03 | 99 | |
| 20260507105143 | 9 | 31 | 0.0 | 1.6 | 0.00 | 0.00 | 0.03 | 99 | |
| 20260507104546 | 9 | 31 | 0.0 | 0.0 | 0.00 | 0.00 | 0.03 | 99 | |
| 20260507103320 | 9 | 31 | 0.0 | 0.0 | 0.00 | 0.00 | 0.03 | 99 | |
| 20260507102729 | 9 | 30 | 0.0 | 0.0 | 0.00 | 0.00 | 0.03 | 99 | |
| 20260507101525 | 9 | 30 | 0.0 | 0.0 | 0.00 | 0.00 | 0.03 | 99 | |
| 20260507100912 | 9 | 30 | 0.0 | 0.0 | 0.00 | 0.00 | 0.03 | 99 | |
| 20260507100332 | 9 | 31 | 0.0 | 0.0 | 0.00 | 0.00 | 0.03 | 99 | |
| 20260507095740 | 9 | 32 | 1.6 | 1.6 | 0.00 | 0.00 | 0.03 | 99 | |
| 20260507095110 | 9 | 31 | 0.0 | 1.6 | 0.00 | 0.00 | 0.03 | 99 | |
| 20260507093930 | 10 | 93 | 0.0 | 3.2 | 0.00 | 0.00 | 0.03 | 99 | |
| 20260507093344 | 10 | 72 | 0.0 | 3.2 | 0.00 | 0.00 | 0.03 | 99 | |
| 20260507092744 | 10 | 36 | 3.2 | 4.8 | 0.00 | 0.00 | 0.03 | 99 | |
| 20260507092130 | 10 | 54 | 1.6 | 9.7 | 0.00 | 0.00 | 0.03 | 99 | |
| 20260507091510 | 11 | 251 | 3.2 | 3.2 | 0.00 | 0.00 | 0.03 | 99 | |
| 20260507090940 | 11 | 352 | 0.0 | 0.0 | 0.00 | 0.00 | 0.03 | 99 | |
| 20260507090318 | 11 | 352 | 0.0 | 0.0 | 0.00 | 0.00 | 0.03 | 99 | |
| 20260507085715 | 11 | 352 | 0.0 | 0.0 | 0.00 | 0.00 | 0.03 | 99 | |
| 20260507085109 | 11 | 352 | 0.0 | 0.0 | 0.00 | 0.00 | 0.03 | 99 | |
| 20260507084541 | 11 | 352 | 0.0 | 0.0 | 0.00 | 0.00 | 0.03 | 99 | |
| 20260507083925 | 11 | 352 | 0.0 | 0.0 | 0.00 | 0.00 | 0.03 | 99 | |
| 20260507083327 | 10 | 352 | 0.0 | 0.0 | 0.00 | 0.00 | 0.03 | 99 | |
| 20260507082121 | 11 | 352 | 0.0 | 0.0 | 0.00 | 0.00 | 0.03 | 99 | |
| 20260507081530 | 11 | 352 | 0.0 | 0.0 | 0.00 | 0.00 | 0.03 | 99 | |
| 20260507080917 | 11 | 352 | 0.0 | 0.0 | 0.00 | 0.00 | 0.03 | 99 | |
| 20260507080337 | 11 | 352 | 0.0 | 0.0 | 0.00 | 0.00 | 0.03 | 99 | |
| 20260507075716 | 11 | 351 | 0.0 | 0.0 | 0.00 | 0.00 | 0.03 | 99 | |
| 20260507075136 | 11 | 351 | 0.0 | 0.0 | 0.00 | 0.00 | 0.03 | 99 | |
| 20260507074541 | 11 | 351 | 0.0 | 0.0 | 0.00 | 0.00 | 0.03 | 99 | |
| 20260507073952 | 11 | 351 | 0.0 | 0.0 | 0.00 | 0.00 | 0.03 | 99 | |
| 20260507073329 | 11 | 351 | 0.0 | 0.0 | 0.00 | 0.00 | 0.00 | 99 | |
| 20260507072748 | 11 | 351 | 0.0 | 0.0 | 0.00 | 0.00 | 0.00 | 99 | |
| 20260507072116 | 11 | 351 | 0.0 | 0.0 | 0.00 | 0.00 | 0.00 | 99 | |
| 20260507071537 | 11 | 351 | 0.0 | 0.0 | 0.00 | 0.00 | 0.00 | 99 | |
| 20260507070310 | 11 | 355 | 0.0 | 0.0 | 0.00 | 0.00 | 0.00 | 99 | |
| 20260507065753 | 11 | 355 | 0.0 | 0.0 | 0.00 | 0.00 | 0.00 | 99 | |
| 20260507064514 | 11 | 355 | 0.0 | 0.0 | 0.00 | 0.00 | 0.00 | 99 | |
| 20260507063913 | 11 | 355 | 0.0 | 0.0 | 0.00 | 0.00 | 0.00 | 99 | |
| 20260507063347 | 11 | 355 | 0.0 | 0.0 | 0.00 | 0.00 | 0.00 | 99 | |
| 20260507062716 | 11 | 5 | 0.0 | 0.0 | 0.00 | 0.00 | 0.00 | 99 | |
| 20260507062130 | 11 | 347 | 0.0 | 0.0 | 0.00 | 0.00 | 0.00 | 99 | |
| 20260507061517 | 11 | 46 | 0.0 | 0.0 | 0.00 | 0.00 | 0.00 | 99 | |
| 20260507060928 | 11 | 57 | 1.6 | 1.6 | 0.00 | 0.00 | 0.00 | 99 | |
| 20260507060317 | 11 | 168 | 0.0 | 0.0 | 0.00 | 0.00 | 0.00 | 99 | |
| 20260507055734 | 11 | 168 | 0.0 | 0.0 | 0.00 | 0.00 | 0.00 | 99 | |
| 20260507055110 | 11 | 168 | 0.0 | 0.0 | 0.00 | 0.00 | 0.00 | 99 | |
| 20260507053926 | 11 | 35 | 0.0 | 0.0 | 0.00 | 0.00 | 0.00 | 99 | |
| 20260507052712 | 11 | 34 | 0.0 | 0.0 | 0.00 | 0.00 | 0.00 | 99 | |
| 20260507052148 | 11 | 35 | 0.0 | 0.0 | 0.00 | 0.00 | 0.00 | 99 | |
| 20260507051524 | 11 | 52 | 0.0 | 0.0 | 0.00 | 0.00 | 0.00 | 99 | |
| 20260507050911 | 11 | 145 | 3.2 | 3.2 | 0.00 | 0.00 | 0.00 | 99 | |
| 20260507050342 | 11 | 41 | 0.0 | 3.2 | 0.00 | 0.00 | 0.00 | 99 | |
| 20260507045750 | 12 | 21 | 0.0 | 0.0 | 0.00 | 0.00 | 0.00 | 99 | |
| 20260507045142 | 11 | 22 | 0.0 | 1.6 | 0.00 | 0.00 | 0.00 | 99 | |
| 20260507044539 | 11 | 331 | 0.0 | 0.0 | 0.00 | 0.00 | 0.00 | 99 | |
| 20260507043954 | 12 | 330 | 0.0 | 0.0 | 0.00 | 0.00 | 0.00 | 99 | |
| 20260507041541 | 12 | 35 | 1.6 | 3.2 | 0.00 | 0.00 | 0.00 | 99 | |
| 20260507040932 | 12 | 176 | 0.0 | 1.6 | 0.00 | 0.00 | 0.00 | 99 | |
| 20260507040332 | 12 | 60 | 1.6 | 3.2 | 0.00 | 0.00 | 0.00 | 99 | |
| 20260507035713 | 12 | 176 | 1.6 | 3.2 | 0.00 | 0.00 | 2.62 | 99 | |
| 20260507035145 | 12 | 8 | 0.0 | 1.6 | 0.00 | 0.00 | 2.59 | 99 | |
| 20260507034518 | 12 | 158 | 0.0 | 11.3 | 0.00 | 0.00 | 2.59 | 99 | |
| 20260507033911 | 12 | 218 | 3.2 | 6.4 | 0.00 | 0.00 | 2.59 | 99 | |
| 20260507033343 | 12 | 93 | 3.2 | 11.3 | 0.00 | 0.00 | 2.59 | 99 | |
| 20260507032121 | 12 | 170 | 0.0 | 4.8 | 0.00 | 0.00 | 2.59 | 99 | |
| 20260507030950 | 12 | 233 | 1.6 | 1.6 | 0.00 | 0.00 | 2.59 | 99 | |
| 20260507030351 | 12 | 316 | 3.2 | 3.2 | 0.00 | 0.00 | 2.59 | 99 | |
| 20260507025726 | 12 | 30 | 1.6 | 1.6 | 0.00 | 0.00 | 2.59 | 99 | |
| 20260507024540 | 13 | 33 | 0.0 | 1.6 | 0.00 | 0.00 | 2.59 | 99 | |
| 20260507023911 | 13 | 33 | 0.0 | 0.0 | 0.00 | 0.00 | 2.59 | 99 | |
| 20260507023354 | 13 | 33 | 0.0 | 0.0 | 0.00 | 0.00 | 2.59 | 99 | |
| 20260507022710 | 13 | 33 | 0.0 | 0.0 | 0.00 | 0.00 | 2.59 | 99 | |
| 20260507022117 | 13 | 33 | 0.0 | 0.0 | 0.00 | 0.00 | 2.57 | 99 | |
| 20260507021541 | 13 | 33 | 0.0 | 0.0 | 0.00 | 0.00 | 2.57 | 99 | |
| 20260507020939 | 13 | 35 | 0.0 | 1.6 | 0.00 | 0.00 | 2.51 | 99 | |
| 20260507020318 | 13 | 236 | 1.6 | 1.6 | 0.00 | 0.00 | 2.51 | 99 | |
| 20260507015728 | 13 | 308 | 1.6 | 1.6 | 0.00 | 0.00 | 2.49 | 99 | |
| 20260507015145 | 13 | 339 | 0.0 | 0.0 | 0.00 | 0.00 | 2.46 | 99 | |
| 20260507014513 | 13 | 318 | 0.0 | 0.0 | 0.00 | 0.00 | 2.44 | 99 | |
| 20260507013930 | 13 | 347 | 0.0 | 0.0 | 0.00 | 0.00 | 2.41 | 99 | |
| 20260507013354 | 13 | 336 | 0.0 | 0.0 | 0.00 | 0.00 | 2.39 | 99 | |
| 20260507012144 | 13 | 24 | 1.6 | 1.6 | 0.00 | 0.00 | 2.36 | 99 | |
| 20260507011532 | 13 | 242 | 0.0 | 3.2 | 0.00 | 0.00 | 2.36 | 99 | |
| 20260507010954 | 13 | 22 | 0.0 | 0.0 | 0.00 | 0.00 | 2.36 | 99 | |
| 20260507010329 | 13 | 23 | 0.0 | 0.0 | 0.00 | 0.00 | 2.36 | 99 | |
| 20260507005135 | 13 | 336 | 0.0 | 1.6 | 0.00 | 0.00 | 2.34 | 99 | |
| 20260507004543 | 13 | 83 | 4.8 | 6.4 | 0.00 | 0.00 | 2.34 | 99 | |
| 20260507003345 | 13 | 36 | 0.0 | 0.0 | 0.00 | 0.00 | 2.34 | 99 | |
| 20260507002729 | 13 | 30 | 0.0 | 1.6 | 0.00 | 0.00 | 2.34 | 99 | |
| 20260507001548 | 13 | 29 | 1.6 | 1.6 | 0.00 | 0.00 | 2.34 | 99 | |
| 20260507000314 | 13 | 303 | 0.0 | 3.2 | 0.00 | 0.00 | 2.34 | 99 | |
| 20260506235729 | 13 | 36 | 1.6 | 3.2 | 0.00 | 0.00 | 2.34 | 99 | |
| 20260506235133 | 13 | 37 | 0.0 | 0.0 | 0.00 | 0.00 | 2.34 | 99 | |
| 20260506234523 | 13 | 37 | 0.0 | 1.6 | 0.00 | 0.00 | 2.34 | 99 | |
| 20260506233939 | 13 | 30 | 0.0 | 1.6 | 0.00 | 0.00 | 2.31 | 99 | |
| 20260506233351 | 13 | 38 | 1.6 | 3.2 | 0.00 | 0.00 | 2.29 | 99 | |
| 20260506232743 | 13 | 36 | 3.2 | 3.2 | 0.00 | 0.00 | 2.26 | 99 | |
| 20260506232149 | 14 | 29 | 0.0 | 1.6 | 0.00 | 0.00 | 2.18 | 99 | |
| 20260506231525 | 14 | 45 | 0.0 | 1.6 | 0.00 | 0.00 | 2.11 | 99 | |
| 20260506230932 | 14 | 180 | 1.6 | 3.2 | 0.00 | 0.00 | 2.08 | 99 | |
| 20260506230329 | 14 | 138 | 0.0 | 6.4 | 0.00 | 0.00 | 2.03 | 99 | |
| 20260506225711 | 14 | 296 | 0.0 | 3.2 | 0.00 | 0.00 | 1.98 | 99 | |
| 20260506225110 | 14 | 30 | 0.0 | 1.6 | 0.00 | 0.00 | 1.98 | 99 | |
| 20260506224517 | 15 | 31 | 0.0 | 0.0 | 0.00 | 0.00 | 1.93 | 99 | |
| 20260506223932 | 14 | 31 | 0.0 | 0.0 | 0.00 | 0.00 | 1.93 | 99 | |
| 20260506223327 | 14 | 31 | 0.0 | 0.0 | 0.00 | 0.00 | 1.93 | 99 | |
| 20260506222722 | 14 | 33 | 0.0 | 1.6 | 0.00 | 0.00 | 1.93 | 99 | |
| 20260506222144 | 14 | 33 | 0.0 | 1.6 | 0.00 | 0.00 | 1.93 | 99 | |
| 20260506221515 | 14 | 45 | 0.0 | 1.6 | 0.00 | 0.00 | 1.93 | 99 | |
| 20260506220918 | 14 | 24 | 3.2 | 4.8 | 0.00 | 0.00 | 1.93 | 99 | |
| 20260506220343 | 14 | 21 | 1.6 | 1.6 | 0.00 | 0.00 | 1.93 | 99 | |
| 20260506215738 | 14 | 23 | 0.0 | 1.6 | 0.00 | 0.00 | 1.93 | 99 | |
| 20260506215142 | 14 | 29 | 1.6 | 1.6 | 0.00 | 0.00 | 1.93 | 99 | |
| 20260506214549 | 15 | 26 | 0.0 | 1.6 | 0.00 | 0.00 | 1.93 | 99 | |
| 20260506213317 | 15 | 27 | 0.0 | 3.2 | 0.00 | 0.00 | 1.91 | 99 | |
| 20260506212713 | 15 | 18 | 1.6 | 3.2 | 0.00 | 0.00 | 1.78 | 99 | |
| 20260506212127 | 15 | 65 | 1.6 | 4.8 | 0.00 | 0.00 | 1.75 | 99 | |
| 20260506210929 | 17 | 34 | 4.8 | 4.8 | 0.00 | 0.00 | 1.73 | 99 | |
| 20260506210347 | 17 | 15 | 0.0 | 0.0 | 0.00 | 0.00 | 1.70 | 99 | |
| 20260506204531 | 18 | 351 | 0.0 | 0.0 | 0.00 | 0.00 | 1.63 | 99 | |
| 20260506203311 | 18 | 312 | 0.0 | 0.0 | 0.00 | 0.00 | 1.57 | 98 | |
| 20260506202713 | 18 | 334 | 0.0 | 0.0 | 0.00 | 0.00 | 1.57 | 98 | |
| 20260506201533 | 18 | 336 | 0.0 | 0.0 | 0.00 | 0.00 | 1.57 | 98 | |
| 20260506200314 | 18 | 326 | 0.0 | 0.0 | 0.00 | 0.00 | 1.57 | 98 | |
| 20260506195752 | 18 | 326 | 0.0 | 0.0 | 0.00 | 0.00 | 1.57 | 98 | |
| 20260506194536 | 18 | 54 | 0.0 | 0.0 | 0.00 | 0.00 | 1.57 | 98 | |
| 20260506193953 | 18 | 128 | 0.0 | 0.0 | 0.00 | 0.00 | 1.57 | 97 | |
| 20260506193353 | 18 | 318 | 0.0 | 0.0 | 0.00 | 0.00 | 1.57 | 97 | |
| 20260506192743 | 18 | 309 | 0.0 | 0.0 | 0.00 | 0.00 | 1.57 | 97 | |
| 20260506192132 | 18 | 308 | 0.0 | 0.0 | 0.00 | 0.00 | 1.57 | 97 | |
| 20260506191543 | 18 | 308 | 0.0 | 1.6 | 0.00 | 0.00 | 1.57 | 97 | |
| 20260506190913 | 17 | 306 | 0.0 | 3.2 | 0.00 | 0.00 | 1.57 | 96 | |
| 20260506190340 | 18 | 310 | 0.0 | 0.0 | 0.00 | 0.00 | 1.57 | 96 | |
| 20260506185719 | 18 | 311 | 1.6 | 1.6 | 0.00 | 0.00 | 1.57 | 95 | |
| 20260506184536 | 18 | 205 | 3.2 | 4.8 | 0.00 | 0.00 | 1.57 | 95 | |
| 20260506183920 | 18 | 167 | 3.2 | 3.2 | 0.00 | 0.00 | 1.57 | 92 | |
| 20260506183330 | 18 | 257 | 0.0 | 3.2 | 0.00 | 0.00 | 1.57 | 91 | |
| 20260506182741 | 18 | 265 | 3.2 | 11.3 | 0.00 | 0.00 | 1.57 | 91 | |
| 20260506181541 | 19 | 179 | 1.6 | 4.8 | 0.00 | 0.00 | 1.57 | 90 | |
| 20260506180936 | 19 | 251 | 3.2 | 9.7 | 0.00 | 0.00 | 1.57 | 89 | |
| 20260506180354 | 20 | 207 | 3.2 | 6.4 | 0.00 | 0.00 | 1.57 | 87 | |
| 20260506175748 | 19 | 180 | 3.2 | 6.4 | 0.00 | 0.00 | 1.57 | 89 | |
| 20260506175127 | 19 | 225 | 9.7 | 16.1 | 0.00 | 0.00 | 1.57 | 89 | |
| 20260506174531 | 19 | 254 | 8.0 | 11.3 | 0.00 | 0.00 | 1.57 | 90 | |
| 20260506173943 | 19 | 244 | 6.4 | 9.7 | 0.00 | 0.00 | 1.57 | 91 | |
| 20260506173318 | 18 | 251 | 3.2 | 9.7 | 0.00 | 0.00 | 1.57 | 92 | |
| 20260506172712 | 18 | 218 | 4.8 | 6.4 | 0.00 | 0.00 | 1.57 | 94 | |
| 20260506172141 | 17 | 247 | 3.2 | 3.2 | 0.00 | 0.00 | 1.57 | 97 | |
| 20260506170953 | 17 | 305 | 0.0 | 1.6 | 0.00 | 0.00 | 1.57 | 99 | |
| 20260506170310 | 17 | 282 | 1.6 | 3.2 | 0.00 | 0.00 | 1.57 | 99 | |
| 20260506163946 | 16 | 91 | 0.0 | 0.0 | 0.00 | 0.00 | 1.57 | 99 | |
| 20260506163334 | 16 | 91 | 0.0 | 1.6 | 0.00 | 0.00 | 1.57 | 99 | |
| 20260506162749 | 16 | 91 | 0.0 | 0.0 | 0.00 | 0.00 | 1.57 | 99 | |
| 20260506162115 | 16 | 91 | 0.0 | 1.6 | 0.00 | 0.00 | 1.57 | 99 | |
| 20260506161546 | 16 | 91 | 0.0 | 1.6 | 0.00 | 0.00 | 1.55 | 99 | |
| 20260506160934 | 16 | 91 | 0.0 | 0.0 | 0.00 | 0.00 | 1.55 | 99 | |
| 20260506160351 | 16 | 91 | 0.0 | 1.6 | 0.00 | 0.00 | 1.55 | 99 | |
| 20260506155712 | 16 | 91 | 0.0 | 0.0 | 0.00 | 0.00 | 1.55 | 99 | |
| 20260506155128 | 16 | 91 | 0.0 | 0.0 | 0.00 | 0.00 | 1.52 | 99 | |
| 20260506154542 | 15 | 86 | 1.6 | 6.4 | 0.00 | 0.00 | 1.50 | 99 | |
| 20260506153930 | 15 | 246 | 0.0 | 0.0 | 0.00 | 0.00 | 1.45 | 99 | |
| 20260506153334 | 15 | 284 | 0.0 | 1.6 | 0.00 | 0.00 | 1.42 | 99 | |
| 20260506152733 | 15 | 1 | 0.0 | 1.6 | 0.00 | 0.00 | 1.37 | 99 | |
| 20260506151533 | 15 | 340 | 0.0 | 1.6 | 0.00 | 0.00 | 1.22 | 99 | |
| 20260506150933 | 15 | 358 | 0.0 | 1.6 | 0.00 | 0.00 | 1.17 | 99 | |
| 20260506150311 | 15 | 340 | 0.0 | 0.0 | 0.00 | 0.00 | 1.09 | 99 | |
| 20260506145750 | 15 | 312 | 0.0 | 1.6 | 0.00 | 0.00 | 1.04 | 99 | |
| 20260506145133 | 15 | 333 | 0.0 | 0.0 | 0.00 | 0.00 | 0.99 | 99 | |
| 20260506144538 | 15 | 2 | 0.0 | 1.6 | 0.00 | 0.00 | 0.97 | 99 | |
| 20260506143929 | 15 | 333 | 0.0 | 0.0 | 0.00 | 0.00 | 0.84 | 99 | |
| 20260506143317 | 15 | 313 | 0.0 | 1.6 | 0.00 | 0.00 | 0.79 | 99 | |
| 20260506142716 | 16 | 332 | 1.6 | 1.6 | 0.00 | 0.00 | 0.76 | 99 | |
| 20260506142117 | 16 | 334 | 0.0 | 0.0 | 0.00 | 0.00 | 0.71 | 99 | |
| 20260506141523 | 16 | 333 | 0.0 | 1.6 | 0.00 | 0.00 | 0.71 | 99 | |
| 20260506140935 | 16 | 320 | 0.0 | 1.6 | 0.00 | 0.00 | 0.71 | 99 |